Meteo Giornale » Osservazioni meteo Italia » Lampedusa
ore: 09:50 - Osservazioni Meteo Lampedusa
Lat. 35° 30' N Lon. 12° 36' E Alt. 16 metri s.l.m.
30 °C
Sereno
Temp. 24 Ore
29 °C
33 °C
Nord
16.7 Km/h
Dew point 23 °C
Umidità 66 %
Visibilità 10 Km
Il sole sorge alle ore 06:41
Il sole tramonta alle ore 19:37
| Data e Ora | Cielo e Fenomeni | T °C | DP °C | Um. % | Pres. hPa | Vis. km | Vento km/h | |
|---|---|---|---|---|---|---|---|---|
| Oggi h: 09:50 | Sereno | 30 | 23 | 66 | 1016 | 10 | N 16.7 | |
| Oggi h: 09:20 | Sereno | 30 | 24 | 70 | 1016 | 10 | N 20.3 | |
| Oggi h: 08:50 | Sereno | 30 | 23 | 66 | 1016 | 10 | N 18.5 | |
| Oggi h: 08:20 | Sereno | 30 | 23 | 66 | 1016 | 10 | N/NO 16.7 | |
| Oggi h: 07:50 | Sereno | 30 | 23 | 66 | 1016 | 10 | N/NO 16.7 | |
| Oggi h: 07:20 | Sereno | 29 | 23 | 70 | 1016 | 10 | N/NO 14.8 | |
| Oggi h: 06:50 | Sereno | 29 | 23 | 70 | 1016 | 10 | NO 13 | |
| Oggi h: 06:20 | Sereno | 29 | 23 | 70 | 1016 | 10 | O/NO 13 | |
| Oggi h: 05:50 | Sereno | 29 | 23 | 70 | 1016 | 10 | NO 14.8 | |
| Oggi h: 05:20 | Poco Nuvoloso | 29 | 24 | 74 | 1015 | 10 | N 13 | |
| Oggi h: 04:50 | Sereno | 29 | 24 | 74 | 1015 | 10 | N/NE 18.5 | |
| Oggi h: 04:20 | Sereno | 29 | 24 | 74 | 1015 | 10 | N 22.2 | |
| Oggi h: 03:50 | Sereno | 29 | 24 | 74 | 1014 | 10 | N/NE 27.8 | |
| Oggi h: 03:20 | Sereno | 30 | 25 | 74 | 1014 | 10 | N/NE 27.8 | |
| Oggi h: 02:50 | Sereno | 30 | 25 | 74 | 1014 | 10 | N 25.9 | |
| Oggi h: 02:20 | Sereno | 30 | 23 | 66 | 1015 | 10 | N 25.9 | |
| Oggi h: 01:50 | Sereno | 30 | 22 | 62 | 1015 | 10 | N 20.3 | |
| Oggi h: 01:20 | Sereno | 31 | 22 | 58 | 1016 | 10 | N 20.3 | |
| Oggi h: 00:50 | Sereno | 30 | 23 | 66 | 1016 | 10 | N/NO 16.7 | |
| Oggi h: 00:20 | Poco Nuvoloso | 30 | 25 | 74 | 1016 | 10 | N/NO 16.7 | |
| Ieri h: 23:50 | Sereno | 30 | 25 | 74 | 1017 | 10 | NO 18.5 | |
| Ieri h: 23:20 | Poco Nuvoloso | 30 | 26 | 79 | 1017 | 10 | NO 22.2 | |
| Ieri h: 22:50 | Sereno | 30 | 26 | 79 | 1017 | 10 | N/NO 24 | |
| Ieri h: 22:20 | Sereno | 30 | 26 | 79 | 1016 | 10 | N/NO 24 | |
| Ieri h: 21:50 | Sereno | 31 | 25 | 70 | 1017 | 10 | NO 16.7 | |
| Ieri h: 21:20 | Sereno | 31 | 25 | 70 | 1016 | 10 | N 13 | |
| Ieri h: 20:50 | Sereno | 31 | 27 | 79 | 1015 | 10 | N/NO 13 | |
| Ieri h: 20:20 | Sereno | 31 | 27 | 79 | 1015 | 10 | N/NO 11.1 | |
| Ieri h: 19:50 | Sereno | 31 | 27 | 79 | 1015 | 10 | N/NO 11.1 | |
| Ieri h: 19:20 | Sereno | 31 | 27 | 79 | 1014 | 10 | N 13 | |
| Ieri h: 18:50 | Sereno | 31 | 28 | 84 | 1014 | 10 | N 13 | |
| Ieri h: 17:50 | Sereno | 32 | 27 | 74 | 1015 | 10 | NE 9.3 | |
| Ieri h: 17:20 | Sereno | 33 | 28 | 75 | 1015 | 10 | N 5.5 | |
| Ieri h: 16:50 | Nuvoloso | 33 | 28 | 75 | 1015 | 10 | S/SO 13 | |



